GFSFLT1_prec_precacc_162.txt.gz
Total_Precipitation_Accumulation
0.01 0.01 0.01 0.03 0.03 0.05 0.36 0.49 0.46 0.57 0.62 0.58 0.63 0.62 0.78 0.55 0.41 0.78 0.84 1.38 1.12 0.59 0.50 0.59 0.99 1.21 1.42 1.63 1.55 1.26 1.29 1.20
0.03 0.02 0.02 0.01 0.06 0.05 0.11 0.27 0.28 0.44 0.41 0.29 0.36 0.36 0.57 0.42 0.45 0.54 0.95 1.17 1.89 1.04 0.56 0.32 0.43 0.50 0.61 1.05 1.50 1.44 1.51 1.84
0.01 0.00 0.00 0.01 0.05 0.04 0.02 0.06 0.15 0.22 0.26 0.29 0.18 0.23 0.33 0.51 0.56 0.65 0.72 0.83 1.21 1.45 0.85 0.61 0.43 0.52 0.58 0.72 1.10 1.21 1.24 1.37
0.00 0.00 0.00 0.01 0.02 0.02 0.04 0.08 0.11 0.10 0.16 0.28 0.25 0.37 0.40 0.61 0.73 0.88 0.67 0.72 0.98 1.17 1.05 0.91 0.85 1.18 1.22 1.24 1.46 1.49 1.31 1.29
0.00 0.01 0.01 0.05 0.07 0.07 0.10 0.10 0.08 0.05 0.06 0.10 0.09 0.15 0.13 0.15 0.18 0.47 0.75 0.81 1.21 1.50 1.15 1.08 0.87 0.81 0.97 0.99 1.12 1.31 1.48 1.53
0.05 0.04 0.04 0.06 0.08 0.07 0.07 0.13 0.14 0.10 0.11 0.08 0.10 0.11 0.14 0.14 0.09 0.13 0.42 0.70 0.60 1.16 1.33 1.29 1.07 0.91 0.80 0.83 0.71 0.69 0.60 0.78
0.13 0.16 0.10 0.12 0.17 0.11 0.08 0.10 0.11 0.15 0.16 0.18 0.14 0.16 0.16 0.12 0.09 0.12 0.20 0.42 0.86 1.03 1.31 1.12 1.20 1.15 1.11 1.31 1.38 1.06 0.78 0.65
0.16 0.12 0.10 0.11 0.22 0.32 0.24 0.25 0.24 0.18 0.14 0.15 0.19 0.20 0.18 0.18 0.19 0.29 0.39 0.50 0.83 1.01 1.26 1.22 1.12 1.23 1.14 1.16 1.39 1.61 1.57 1.08
0.34 0.24 0.20 0.15 0.11 0.18 0.31 0.49 0.53 0.48 0.40 0.36 0.39 0.42 0.41 0.41 0.46 0.65 0.64 0.47 0.46 0.88 1.36 1.51 1.27 1.28 1.36 1.38 1.48 1.49 1.80 1.86
0.50 0.38 0.27 0.22 0.18 0.35 0.41 0.37 0.31 0.46 0.61 0.52 0.55 0.61 0.68 0.82 0.80 0.83 0.79 0.56 0.39 0.47 0.59 1.00 1.16 1.28 1.54 1.76 1.59 1.37 1.39 1.53
0.32 0.25 0.27 0.30 0.62 0.97 1.06 0.91 0.74 0.71 0.79 0.73 0.78 0.86 0.87 0.90 0.78 0.94 0.83 0.78 0.74 0.80 0.72 0.95 1.23 1.53 1.57 1.59 1.35 1.20 1.28 1.36
0.14 0.19 0.26 0.44 0.57 0.84 1.07 1.28 1.65 1.41 1.37 1.42 1.19 1.00 1.13 1.14 1.10 1.10 1.13 1.04 1.06 1.02 1.03 1.03 0.84 0.98 1.32 1.61 1.66 1.58 1.67 1.71
0.07 0.07 0.10 0.32 0.55 0.70 0.82 1.13 1.80 1.70 1.32 1.55 1.67 1.40 1.71 2.06 2.10 1.80 1.93 1.88 1.64 1.50 1.19 1.00 0.80 0.67 0.83 1.43 1.75 1.61 1.40 1.64
0.07 0.09 0.12 0.20 0.37 0.58 0.75 1.07 1.58 1.75 1.93 1.82 1.65 1.39 1.76 1.58 1.21 0.99 0.86 0.82 0.79 0.83 0.83 0.82 0.84 0.61 0.53 0.72 1.18 1.69 1.56 1.37
0.15 0.16 0.19 0.25 0.42 0.58 0.74 1.26 1.48 1.40 1.70 1.73 1.52 1.37 1.28 1.03 0.88 0.78 0.66 0.58 0.36 0.43 0.63 0.78 1.00 0.93 0.95 0.92 0.98 1.07 1.47 1.45
0.21 0.23 0.23 0.23 0.31 0.37 0.45 0.58 1.06 1.21 1.46 1.92 1.82 1.57 1.43 1.52 1.54 1.41 0.88 0.77 0.66 0.53 0.49 0.47 0.81 1.17 0.87 0.79 0.76 1.03 1.23 1.44
0.24 0.28 0.29 0.29 0.28 0.24 0.29 0.38 0.45 0.62 0.72 1.17 1.61 1.98 1.30 1.35 1.62 1.84 1.41 0.99 1.07 0.85 0.92 0.73 0.65 0.95 1.35 0.98 0.83 0.64 0.85 1.05
0.22 0.23 0.21 0.25 0.27 0.27 0.33 0.40 0.38 0.49 0.65 1.01 1.16 1.44 1.87 1.48 1.69 1.88 2.15 1.77 1.42 1.41 1.17 1.14 1.09 1.06 1.52 1.04 1.11 1.00 0.89 0.74
0.45 0.39 0.38 0.42 0.48 0.52 0.56 0.62 0.69 0.77 0.87 1.04 1.25 1.18 1.69 2.05 1.76 1.73 1.75 1.86 1.92 1.82 1.46 1.27 1.03 0.99 1.14 1.37 1.49 1.12 1.01 0.82

GFSFLT1_prec_precacc_165.txt.gz
Total_Precipitation_Accumulation
0.01 0.01 0.01 0.03 0.03 0.05 0.36 0.49 0.47 0.58 0.62 0.58 0.63 0.62 0.78 0.55 0.41 0.78 0.84 1.38 1.12 0.59 0.50 0.59 0.99 1.21 1.42 1.63 1.55 1.26 1.29 1.20
0.03 0.02 0.02 0.01 0.06 0.05 0.14 0.29 0.31 0.47 0.42 0.29 0.36 0.36 0.57 0.42 0.45 0.54 0.95 1.17 1.89 1.04 0.56 0.32 0.43 0.50 0.61 1.05 1.50 1.44 1.51 1.84
0.01 0.00 0.00 0.01 0.05 0.10 0.10 0.12 0.23 0.30 0.31 0.31 0.19 0.23 0.33 0.51 0.56 0.65 0.72 0.83 1.21 1.45 0.85 0.61 0.43 0.52 0.58 0.72 1.10 1.21 1.24 1.37
0.00 0.00 0.01 0.03 0.07 0.08 0.11 0.16 0.20 0.18 0.21 0.30 0.25 0.37 0.40 0.61 0.73 0.88 0.67 0.72 0.98 1.17 1.05 0.91 0.85 1.18 1.22 1.24 1.46 1.49 1.31 1.29
0.00 0.01 0.01 0.07 0.13 0.13 0.18 0.21 0.18 0.12 0.11 0.13 0.10 0.15 0.13 0.15 0.18 0.47 0.75 0.81 1.21 1.50 1.15 1.08 0.87 0.81 0.97 0.99 1.12 1.31 1.48 1.53
0.05 0.04 0.04 0.07 0.15 0.14 0.16 0.23 0.24 0.16 0.15 0.09 0.10 0.11 0.14 0.14 0.09 0.13 0.42 0.70 0.60 1.16 1.33 1.29 1.07 0.91 0.80 0.83 0.71 0.69 0.60 0.78
0.13 0.16 0.10 0.14 0.23 0.18 0.17 0.20 0.16 0.16 0.16 0.18 0.14 0.16 0.16 0.12 0.09 0.12 0.20 0.42 0.86 1.03 1.31 1.12 1.20 1.15 1.11 1.31 1.38 1.06 0.78 0.65
0.16 0.12 0.10 0.11 0.23 0.36 0.27 0.26 0.24 0.18 0.14 0.15 0.19 0.20 0.18 0.18 0.19 0.29 0.39 0.50 0.83 1.01 1.26 1.22 1.12 1.23 1.14 1.16 1.39 1.61 1.57 1.08
0.34 0.24 0.20 0.15 0.11 0.18 0.31 0.49 0.53 0.48 0.40 0.36 0.39 0.42 0.41 0.41 0.46 0.65 0.64 0.47 0.46 0.88 1.36 1.51 1.27 1.28 1.36 1.38 1.48 1.49 1.80 1.86
0.50 0.38 0.27 0.22 0.18 0.35 0.41 0.37 0.31 0.46 0.61 0.52 0.55 0.61 0.68 0.82 0.80 0.83 0.79 0.56 0.39 0.47 0.59 1.00 1.16 1.28 1.54 1.76 1.59 1.37 1.39 1.53
0.32 0.25 0.27 0.30 0.62 0.97 1.06 0.91 0.74 0.71 0.79 0.73 0.78 0.86 0.87 0.90 0.78 0.94 0.83 0.78 0.74 0.80 0.72 0.95 1.23 1.53 1.57 1.59 1.35 1.20 1.28 1.36
0.14 0.19 0.26 0.44 0.57 0.84 1.07 1.28 1.65 1.41 1.37 1.42 1.19 1.00 1.13 1.14 1.10 1.10 1.13 1.04 1.06 1.02 1.03 1.03 0.84 0.98 1.32 1.61 1.66 1.58 1.67 1.71
0.07 0.07 0.10 0.32 0.55 0.70 0.82 1.13 1.80 1.70 1.32 1.55 1.67 1.40 1.71 2.06 2.10 1.80 1.93 1.88 1.64 1.50 1.19 1.00 0.80 0.67 0.83 1.43 1.75 1.61 1.40 1.64
0.07 0.09 0.12 0.20 0.37 0.58 0.75 1.07 1.58 1.75 1.93 1.82 1.65 1.39 1.76 1.58 1.21 0.99 0.86 0.82 0.79 0.83 0.83 0.82 0.84 0.61 0.53 0.72 1.18 1.69 1.56 1.37
0.15 0.16 0.19 0.25 0.42 0.58 0.74 1.26 1.48 1.40 1.70 1.73 1.52 1.37 1.28 1.03 0.88 0.78 0.66 0.58 0.36 0.43 0.63 0.78 1.00 0.93 0.95 0.92 0.98 1.07 1.47 1.45
0.21 0.23 0.23 0.23 0.31 0.37 0.45 0.58 1.06 1.21 1.46 1.92 1.82 1.57 1.43 1.52 1.54 1.41 0.88 0.77 0.66 0.53 0.49 0.48 0.83 1.18 0.87 0.79 0.76 1.03 1.23 1.46
0.24 0.28 0.29 0.29 0.28 0.24 0.29 0.38 0.45 0.62 0.72 1.17 1.61 1.98 1.30 1.35 1.62 1.84 1.41 0.99 1.07 0.86 0.94 0.77 0.71 0.97 1.36 0.98 0.84 0.66 0.88 1.10
0.22 0.23 0.21 0.25 0.27 0.27 0.33 0.40 0.38 0.49 0.65 1.01 1.16 1.44 1.87 1.48 1.69 1.88 2.15 1.77 1.43 1.48 1.28 1.25 1.16 1.09 1.54 1.06 1.13 1.03 0.93 0.78
0.45 0.39 0.38 0.42 0.48 0.52 0.56 0.62 0.69 0.77 0.87 1.04 1.25 1.18 1.69 2.05 1.76 1.74 1.76 1.89 2.00 1.92 1.58 1.38 1.11 1.04 1.19 1.44 1.57 1.23 1.10 0.88

GFSFLT1_prec_precacc_168.txt.gz
Total_Precipitation_Accumulation
0.01 0.01 0.01 0.03 0.03 0.05 0.36 0.49 0.49 0.68 0.81 0.83 0.80 0.73 0.81 0.55 0.41 0.78 0.84 1.38 1.12 0.59 0.50 0.59 0.99 1.21 1.42 1.63 1.55 1.26 1.29 1.20
0.03 0.02 0.02 0.01 0.06 0.05 0.16 0.32 0.51 0.71 0.64 0.47 0.51 0.50 0.66 0.47 0.47 0.54 0.95 1.17 1.89 1.04 0.56 0.32 0.43 0.50 0.61 1.05 1.50 1.44 1.51 1.84
0.01 0.00 0.00 0.01 0.05 0.12 0.15 0.26 0.44 0.46 0.46 0.45 0.29 0.28 0.34 0.51 0.56 0.65 0.72 0.83 1.21 1.45 0.85 0.61 0.43 0.52 0.58 0.72 1.10 1.21 1.24 1.37
0.00 0.00 0.01 0.03 0.07 0.12 0.24 0.29 0.32 0.30 0.29 0.35 0.31 0.42 0.43 0.61 0.73 0.88 0.67 0.72 0.98 1.17 1.05 0.91 0.85 1.18 1.22 1.24 1.46 1.49 1.31 1.29
0.00 0.01 0.01 0.07 0.15 0.23 0.34 0.40 0.37 0.29 0.22 0.25 0.26 0.26 0.23 0.22 0.20 0.47 0.75 0.81 1.21 1.50 1.15 1.08 0.87 0.81 0.97 0.99 1.12 1.31 1.48 1.53
0.05 0.04 0.04 0.07 0.17 0.22 0.30 0.42 0.42 0.29 0.24 0.16 0.15 0.13 0.16 0.16 0.10 0.13 0.42 0.70 0.60 1.16 1.33 1.29 1.07 0.91 0.80 0.83 0.71 0.69 0.60 0.78
0.13 0.16 0.10 0.14 0.23 0.21 0.26 0.33 0.27 0.23 0.19 0.19 0.14 0.16 0.16 0.12 0.09 0.12 0.20 0.42 0.86 1.03 1.31 1.12 1.20 1.15 1.11 1.31 1.38 1.06 0.78 0.65
0.16 0.12 0.10 0.11 0.23 0.36 0.28 0.29 0.26 0.19 0.14 0.15 0.19 0.20 0.18 0.18 0.19 0.29 0.39 0.50 0.83 1.01 1.26 1.22 1.12 1.23 1.14 1.16 1.39 1.61 1.57 1.08
0.34 0.24 0.20 0.15 0.11 0.18 0.31 0.49 0.53 0.48 0.40 0.36 0.39 0.42 0.41 0.41 0.46 0.65 0.64 0.47 0.46 0.88 1.36 1.51 1.27 1.28 1.36 1.38 1.48 1.49 1.80 1.86
0.50 0.38 0.27 0.22 0.18 0.35 0.41 0.37 0.31 0.46 0.61 0.52 0.55 0.61 0.68 0.82 0.80 0.83 0.79 0.56 0.39 0.47 0.59 1.00 1.16 1.28 1.54 1.76 1.59 1.37 1.39 1.53
0.32 0.25 0.27 0.30 0.62 0.97 1.06 0.91 0.74 0.71 0.79 0.73 0.78 0.86 0.87 0.90 0.78 0.94 0.83 0.78 0.74 0.80 0.72 0.95 1.23 1.53 1.57 1.59 1.35 1.20 1.28 1.36
0.14 0.19 0.26 0.44 0.57 0.84 1.07 1.28 1.65 1.41 1.37 1.42 1.19 1.00 1.13 1.14 1.10 1.10 1.13 1.04 1.06 1.02 1.03 1.03 0.84 0.98 1.32 1.61 1.66 1.58 1.67 1.71
0.07 0.07 0.10 0.32 0.55 0.70 0.82 1.13 1.80 1.70 1.32 1.55 1.67 1.40 1.71 2.06 2.10 1.80 1.93 1.88 1.64 1.50 1.19 1.00 0.80 0.67 0.83 1.43 1.75 1.61 1.40 1.64
0.07 0.09 0.12 0.20 0.37 0.58 0.75 1.07 1.58 1.75 1.93 1.82 1.65 1.39 1.76 1.58 1.21 0.99 0.86 0.82 0.79 0.83 0.83 0.82 0.84 0.61 0.53 0.72 1.18 1.69 1.56 1.37
0.15 0.16 0.19 0.25 0.42 0.58 0.74 1.26 1.48 1.40 1.70 1.73 1.52 1.37 1.28 1.03 0.88 0.78 0.66 0.58 0.36 0.43 0.63 0.78 1.00 0.93 0.95 0.92 0.98 1.07 1.47 1.45
0.21 0.23 0.23 0.23 0.31 0.37 0.45 0.58 1.06 1.21 1.46 1.92 1.82 1.57 1.43 1.52 1.54 1.41 0.88 0.77 0.66 0.53 0.49 0.48 0.83 1.20 0.89 0.80 0.76 1.03 1.23 1.46
0.24 0.28 0.29 0.29 0.28 0.24 0.29 0.38 0.45 0.62 0.72 1.17 1.61 1.98 1.30 1.35 1.62 1.84 1.41 0.99 1.07 0.86 0.94 0.78 0.73 1.02 1.43 1.03 0.86 0.67 0.88 1.10
0.22 0.23 0.21 0.25 0.27 0.27 0.33 0.40 0.38 0.49 0.65 1.01 1.16 1.44 1.87 1.48 1.69 1.88 2.15 1.78 1.43 1.48 1.28 1.26 1.21 1.17 1.63 1.09 1.14 1.04 0.94 0.78
0.45 0.39 0.38 0.42 0.48 0.52 0.56 0.62 0.69 0.77 0.87 1.04 1.25 1.18 1.69 2.05 1.76 1.74 1.76 1.89 2.00 1.92 1.59 1.41 1.18 1.13 1.25 1.46 1.58 1.25 1.13 0.94

GFSFLT1_prec_precacc_171.txt.gz
Total_Precipitation_Accumulation
0.01 0.01 0.01 0.03 0.03 0.05 0.36 0.57 0.66 0.82 0.98 1.03 1.06 1.07 1.36 0.93 0.53 0.87 0.86 1.38 1.12 0.59 0.50 0.59 0.99 1.21 1.42 1.63 1.55 1.26 1.29 1.20
0.03 0.02 0.02 0.01 0.06 0.05 0.16 0.46 0.68 0.95 0.89 0.63 0.57 0.61 0.84 0.68 0.60 0.57 0.95 1.17 1.89 1.04 0.56 0.32 0.43 0.50 0.61 1.05 1.50 1.44 1.51 1.84
0.01 0.00 0.00 0.01 0.05 0.12 0.18 0.41 0.66 0.76 0.69 0.50 0.30 0.29 0.36 0.52 0.58 0.65 0.72 0.83 1.21 1.45 0.85 0.61 0.43 0.52 0.58 0.72 1.10 1.21 1.24 1.37
0.00 0.00 0.01 0.03 0.07 0.12 0.30 0.42 0.51 0.54 0.47 0.39 0.32 0.45 0.49 0.69 0.77 0.90 0.68 0.73 0.98 1.17 1.05 0.91 0.85 1.18 1.22 1.24 1.46 1.49 1.31 1.29
0.00 0.01 0.02 0.07 0.15 0.24 0.39 0.52 0.56 0.54 0.43 0.33 0.31 0.29 0.28 0.29 0.27 0.51 0.76 0.82 1.21 1.50 1.15 1.08 0.87 0.81 0.97 0.99 1.12 1.31 1.48 1.53
0.05 0.04 0.04 0.07 0.17 0.22 0.31 0.48 0.54 0.43 0.33 0.21 0.17 0.14 0.16 0.16 0.11 0.15 0.43 0.71 0.60 1.16 1.33 1.29 1.07 0.91 0.80 0.83 0.71 0.69 0.60 0.78
0.13 0.16 0.10 0.14 0.23 0.21 0.26 0.35 0.30 0.24 0.20 0.21 0.15 0.17 0.17 0.12 0.09 0.12 0.20 0.42 0.86 1.03 1.31 1.12 1.20 1.15 1.11 1.31 1.38 1.06 0.78 0.65
0.16 0.12 0.10 0.11 0.23 0.36 0.28 0.29 0.26 0.19 0.15 0.15 0.19 0.20 0.18 0.18 0.19 0.29 0.39 0.50 0.83 1.01 1.26 1.22 1.12 1.23 1.14 1.16 1.39 1.61 1.57 1.08
0.34 0.24 0.20 0.15 0.11 0.18 0.31 0.49 0.53 0.48 0.40 0.36 0.39 0.42 0.41 0.41 0.46 0.65 0.64 0.47 0.46 0.88 1.36 1.51 1.27 1.28 1.36 1.38 1.48 1.49 1.80 1.86
0.50 0.38 0.27 0.22 0.18 0.35 0.41 0.37 0.31 0.46 0.61 0.52 0.55 0.61 0.68 0.82 0.80 0.83 0.79 0.56 0.39 0.47 0.59 1.00 1.16 1.28 1.54 1.76 1.59 1.37 1.39 1.53
0.32 0.25 0.27 0.30 0.62 0.97 1.06 0.91 0.74 0.71 0.79 0.73 0.78 0.86 0.87 0.90 0.78 0.94 0.83 0.78 0.74 0.80 0.72 0.95 1.23 1.53 1.57 1.59 1.35 1.20 1.28 1.36
0.14 0.19 0.26 0.44 0.57 0.84 1.07 1.28 1.65 1.41 1.37 1.42 1.19 1.00 1.13 1.14 1.10 1.10 1.13 1.04 1.06 1.02 1.03 1.03 0.84 0.98 1.32 1.61 1.66 1.58 1.67 1.71
0.07 0.07 0.10 0.32 0.55 0.70 0.82 1.13 1.80 1.70 1.32 1.55 1.67 1.40 1.71 2.06 2.10 1.80 1.93 1.88 1.64 1.50 1.19 1.00 0.80 0.67 0.83 1.43 1.75 1.61 1.40 1.64
0.07 0.09 0.12 0.20 0.37 0.58 0.75 1.07 1.58 1.75 1.93 1.82 1.65 1.39 1.76 1.58 1.21 0.99 0.86 0.82 0.79 0.83 0.83 0.82 0.84 0.61 0.53 0.72 1.18 1.69 1.56 1.37
0.15 0.16 0.19 0.25 0.42 0.58 0.74 1.26 1.48 1.40 1.70 1.73 1.52 1.37 1.28 1.03 0.88 0.78 0.66 0.58 0.36 0.43 0.63 0.78 1.00 0.93 0.95 0.92 0.99 1.07 1.47 1.45
0.21 0.23 0.23 0.23 0.31 0.37 0.45 0.58 1.06 1.21 1.46 1.92 1.82 1.57 1.43 1.52 1.54 1.41 0.88 0.77 0.66 0.53 0.49 0.48 0.83 1.20 0.89 0.80 0.77 1.04 1.24 1.46
0.24 0.28 0.29 0.29 0.28 0.24 0.29 0.38 0.45 0.62 0.72 1.17 1.61 1.98 1.30 1.35 1.62 1.84 1.41 0.99 1.07 0.86 0.94 0.78 0.73 1.02 1.43 1.04 0.88 0.69 0.89 1.10
0.22 0.23 0.21 0.25 0.27 0.27 0.33 0.40 0.38 0.49 0.65 1.01 1.16 1.44 1.87 1.48 1.69 1.88 2.15 1.78 1.43 1.48 1.28 1.26 1.21 1.17 1.65 1.13 1.18 1.06 0.94 0.79
0.45 0.39 0.38 0.42 0.48 0.52 0.56 0.62 0.69 0.77 0.87 1.04 1.25 1.18 1.69 2.05 1.76 1.74 1.76 1.89 2.00 1.92 1.59 1.41 1.18 1.14 1.27 1.49 1.60 1.26 1.14 0.95

GFSFLT1_prec_precacc_174.txt.gz
Total_Precipitation_Accumulation
0.01 0.01 0.01 0.03 0.03 0.05 0.37 0.57 0.69 0.86 1.00 1.10 1.20 1.14 1.46 1.49 1.36 1.69 1.41 1.55 1.12 0.59 0.50 0.59 0.99 1.21 1.42 1.63 1.55 1.26 1.29 1.20
0.03 0.02 0.02 0.01 0.06 0.05 0.17 0.46 0.70 0.99 0.98 0.73 0.61 0.65 0.87 0.69 0.65 0.62 0.98 1.20 1.90 1.04 0.56 0.32 0.43 0.50 0.61 1.05 1.50 1.44 1.51 1.84
0.01 0.00 0.00 0.01 0.06 0.12 0.20 0.43 0.69 0.82 0.77 0.55 0.34 0.37 0.42 0.53 0.58 0.68 0.75 0.85 1.22 1.45 0.85 0.61 0.43 0.52 0.58 0.72 1.10 1.21 1.24 1.37
0.00 0.00 0.01 0.04 0.08 0.13 0.31 0.44 0.55 0.61 0.53 0.45 0.35 0.47 0.50 0.71 0.78 0.91 0.69 0.74 0.99 1.18 1.06 0.92 0.85 1.18 1.22 1.24 1.46 1.49 1.31 1.29
0.00 0.01 0.02 0.07 0.16 0.24 0.40 0.54 0.62 0.61 0.48 0.41 0.35 0.31 0.29 0.30 0.27 0.51 0.76 0.82 1.21 1.51 1.17 1.09 0.87 0.81 0.97 0.99 1.12 1.31 1.48 1.53
0.05 0.04 0.04 0.08 0.18 0.22 0.31 0.48 0.55 0.43 0.33 0.22 0.20 0.15 0.16 0.17 0.11 0.15 0.43 0.71 0.60 1.16 1.33 1.29 1.07 0.91 0.80 0.83 0.71 0.69 0.60 0.78
0.13 0.16 0.10 0.14 0.23 0.21 0.26 0.35 0.30 0.24 0.20 0.21 0.15 0.17 0.17 0.12 0.09 0.12 0.20 0.42 0.86 1.03 1.31 1.12 1.20 1.15 1.11 1.31 1.38 1.06 0.78 0.65
0.16 0.12 0.10 0.11 0.23 0.36 0.28 0.29 0.26 0.19 0.15 0.15 0.19 0.20 0.18 0.18 0.19 0.29 0.39 0.50 0.83 1.01 1.26 1.22 1.12 1.23 1.14 1.16 1.39 1.61 1.57 1.08
0.34 0.24 0.20 0.15 0.11 0.18 0.31 0.49 0.53 0.48 0.40 0.36 0.39 0.42 0.41 0.41 0.46 0.65 0.64 0.47 0.46 0.88 1.36 1.51 1.27 1.28 1.36 1.38 1.48 1.49 1.80 1.86
0.50 0.38 0.27 0.22 0.18 0.35 0.41 0.37 0.31 0.46 0.61 0.52 0.55 0.61 0.68 0.82 0.80 0.83 0.79 0.56 0.39 0.47 0.59 1.00 1.16 1.28 1.54 1.76 1.59 1.37 1.39 1.53
0.32 0.25 0.27 0.30 0.62 0.97 1.06 0.91 0.74 0.71 0.79 0.73 0.78 0.86 0.87 0.90 0.78 0.94 0.83 0.78 0.74 0.80 0.72 0.95 1.23 1.53 1.57 1.59 1.35 1.20 1.28 1.36
0.14 0.19 0.26 0.44 0.57 0.84 1.07 1.28 1.65 1.41 1.37 1.42 1.19 1.00 1.13 1.14 1.10 1.10 1.13 1.04 1.06 1.02 1.03 1.03 0.84 0.98 1.32 1.61 1.66 1.58 1.67 1.71
0.07 0.07 0.10 0.32 0.55 0.70 0.82 1.13 1.80 1.70 1.32 1.55 1.67 1.40 1.71 2.06 2.10 1.80 1.93 1.88 1.64 1.50 1.19 1.00 0.80 0.67 0.83 1.43 1.75 1.61 1.40 1.64
0.07 0.09 0.12 0.20 0.37 0.58 0.75 1.07 1.58 1.75 1.93 1.82 1.65 1.39 1.76 1.58 1.21 0.99 0.86 0.82 0.79 0.83 0.83 0.82 0.84 0.61 0.53 0.72 1.18 1.69 1.56 1.37
0.15 0.16 0.19 0.25 0.42 0.58 0.74 1.26 1.48 1.40 1.70 1.73 1.52 1.37 1.28 1.03 0.88 0.78 0.66 0.58 0.36 0.43 0.63 0.78 1.00 0.93 0.95 0.92 0.99 1.07 1.47 1.45
0.21 0.23 0.23 0.23 0.31 0.37 0.45 0.58 1.06 1.21 1.46 1.92 1.82 1.57 1.43 1.52 1.54 1.41 0.88 0.77 0.66 0.53 0.49 0.48 0.83 1.20 0.89 0.80 0.77 1.04 1.24 1.46
0.24 0.28 0.29 0.29 0.28 0.24 0.29 0.38 0.45 0.62 0.72 1.17 1.61 1.98 1.30 1.35 1.62 1.84 1.41 0.99 1.07 0.86 0.94 0.78 0.73 1.02 1.43 1.04 0.88 0.69 0.90 1.10
0.22 0.23 0.21 0.25 0.27 0.27 0.33 0.40 0.38 0.49 0.65 1.01 1.16 1.44 1.87 1.48 1.69 1.88 2.15 1.78 1.43 1.48 1.28 1.26 1.21 1.17 1.65 1.13 1.18 1.06 0.94 0.79
0.45 0.39 0.38 0.42 0.48 0.52 0.56 0.62 0.69 0.77 0.87 1.04 1.25 1.18 1.69 2.05 1.76 1.74 1.76 1.89 2.00 1.93 1.59 1.41 1.18 1.14 1.27 1.49 1.61 1.26 1.14 0.95

GFSFLT1_prec_precacc_177.txt.gz
Total_Precipitation_Accumulation
0.01 0.01 0.01 0.03 0.03 0.05 0.37 0.58 0.70 0.87 1.02 1.12 1.22 1.15 1.49 1.52 1.42 1.72 1.42 1.63 1.23 0.67 0.54 0.60 0.99 1.21 1.42 1.63 1.55 1.26 1.29 1.20
0.03 0.02 0.02 0.01 0.06 0.05 0.17 0.46 0.71 1.02 1.03 0.76 0.62 0.65 0.88 0.72 0.66 0.62 0.98 1.20 1.90 1.04 0.56 0.32 0.43 0.50 0.61 1.05 1.50 1.44 1.51 1.84
0.01 0.00 0.00 0.01 0.06 0.12 0.20 0.44 0.72 0.87 0.81 0.56 0.34 0.37 0.43 0.54 0.58 0.68 0.76 0.85 1.22 1.45 0.85 0.61 0.43 0.52 0.58 0.72 1.10 1.21 1.24 1.37
0.00 0.00 0.01 0.04 0.08 0.13 0.31 0.45 0.57 0.63 0.56 0.46 0.36 0.48 0.51 0.71 0.79 0.91 0.69 0.74 0.99 1.18 1.06 0.93 0.88 1.20 1.23 1.25 1.47 1.50 1.31 1.29
0.00 0.01 0.02 0.07 0.16 0.24 0.40 0.54 0.63 0.63 0.50 0.42 0.37 0.32 0.30 0.31 0.27 0.51 0.76 0.82 1.21 1.51 1.17 1.09 0.88 0.81 0.97 0.99 1.12 1.31 1.48 1.53
0.05 0.04 0.04 0.08 0.18 0.22 0.31 0.48 0.56 0.44 0.33 0.22 0.20 0.15 0.16 0.17 0.11 0.15 0.43 0.71 0.60 1.16 1.33 1.29 1.07 0.91 0.80 0.83 0.71 0.69 0.60 0.78
0.13 0.16 0.10 0.14 0.23 0.21 0.26 0.35 0.30 0.24 0.20 0.21 0.15 0.17 0.17 0.12 0.09 0.12 0.20 0.42 0.86 1.03 1.31 1.12 1.20 1.15 1.11 1.31 1.38 1.06 0.78 0.65
0.16 0.12 0.10 0.11 0.23 0.36 0.29 0.29 0.26 0.19 0.15 0.15 0.19 0.20 0.18 0.18 0.19 0.29 0.39 0.50 0.83 1.01 1.26 1.22 1.12 1.23 1.14 1.16 1.39 1.61 1.57 1.08
0.34 0.24 0.20 0.15 0.11 0.18 0.31 0.49 0.53 0.48 0.40 0.36 0.39 0.42 0.41 0.41 0.46 0.65 0.64 0.47 0.46 0.88 1.36 1.51 1.27 1.28 1.36 1.38 1.48 1.49 1.80 1.86
0.50 0.38 0.27 0.22 0.18 0.35 0.41 0.37 0.31 0.46 0.61 0.52 0.55 0.61 0.68 0.82 0.80 0.83 0.79 0.56 0.39 0.47 0.59 1.00 1.16 1.28 1.54 1.76 1.59 1.37 1.39 1.53
0.32 0.25 0.27 0.30 0.62 0.97 1.06 0.91 0.74 0.71 0.79 0.73 0.78 0.86 0.87 0.90 0.78 0.94 0.83 0.78 0.74 0.80 0.72 0.95 1.23 1.53 1.57 1.59 1.35 1.20 1.28 1.36
0.14 0.19 0.26 0.44 0.57 0.84 1.07 1.28 1.65 1.41 1.37 1.42 1.19 1.00 1.13 1.14 1.10 1.10 1.13 1.04 1.06 1.02 1.03 1.03 0.84 0.98 1.32 1.61 1.66 1.58 1.67 1.71
0.07 0.07 0.10 0.32 0.55 0.70 0.82 1.13 1.80 1.70 1.32 1.55 1.67 1.40 1.71 2.06 2.10 1.80 1.93 1.88 1.64 1.50 1.19 1.00 0.80 0.67 0.83 1.43 1.75 1.61 1.40 1.64
0.07 0.09 0.12 0.20 0.37 0.58 0.75 1.07 1.58 1.75 1.93 1.82 1.65 1.39 1.76 1.58 1.21 0.99 0.86 0.82 0.79 0.83 0.83 0.82 0.84 0.61 0.53 0.72 1.18 1.69 1.56 1.37
0.15 0.16 0.19 0.25 0.42 0.58 0.74 1.26 1.48 1.40 1.70 1.73 1.52 1.37 1.28 1.03 0.88 0.78 0.66 0.58 0.36 0.43 0.63 0.78 1.00 0.93 0.95 0.92 0.99 1.07 1.47 1.45
0.21 0.23 0.23 0.23 0.31 0.37 0.45 0.58 1.06 1.21 1.46 1.92 1.82 1.57 1.43 1.52 1.54 1.41 0.88 0.77 0.66 0.53 0.49 0.48 0.83 1.20 0.89 0.80 0.77 1.04 1.24 1.46
0.24 0.28 0.29 0.29 0.28 0.24 0.29 0.38 0.45 0.62 0.72 1.17 1.61 1.98 1.30 1.35 1.62 1.84 1.41 0.99 1.07 0.86 0.94 0.78 0.73 1.02 1.43 1.04 0.88 0.69 0.90 1.10
0.22 0.23 0.21 0.25 0.27 0.27 0.33 0.40 0.38 0.49 0.65 1.01 1.16 1.44 1.87 1.48 1.69 1.88 2.15 1.78 1.43 1.48 1.28 1.26 1.21 1.17 1.65 1.13 1.18 1.06 0.94 0.79
0.45 0.39 0.38 0.42 0.48 0.52 0.56 0.62 0.69 0.77 0.87 1.04 1.25 1.18 1.69 2.05 1.76 1.74 1.76 1.89 2.00 1.93 1.59 1.41 1.18 1.14 1.27 1.49 1.61 1.26 1.14 0.95

GFSFLT1_prec_precacc_180.txt.gz
Total_Precipitation_Accumulation
0.01 0.01 0.01 0.03 0.03 0.05 0.37 0.58 0.70 0.88 1.03 1.13 1.23 1.17 1.50 1.52 1.42 1.72 1.42 1.63 1.23 0.67 0.54 0.60 1.00 1.21 1.42 1.63 1.55 1.26 1.31 1.20
0.03 0.02 0.02 0.01 0.06 0.05 0.18 0.46 0.72 1.02 1.05 0.78 0.65 0.67 0.89 0.72 0.66 0.62 0.98 1.20 1.90 1.04 0.56 0.32 0.43 0.50 0.61 1.05 1.50 1.44 1.51 1.84
0.01 0.00 0.00 0.01 0.06 0.13 0.20 0.44 0.72 0.88 0.83 0.57 0.35 0.39 0.44 0.55 0.59 0.68 0.76 0.85 1.22 1.45 0.85 0.61 0.43 0.52 0.58 0.72 1.10 1.21 1.24 1.37
0.00 0.00 0.01 0.04 0.08 0.13 0.31 0.45 0.57 0.64 0.57 0.46 0.36 0.48 0.51 0.71 0.79 0.91 0.69 0.74 0.99 1.18 1.06 0.93 0.88 1.20 1.23 1.25 1.47 1.50 1.31 1.29
0.00 0.01 0.02 0.07 0.16 0.24 0.40 0.54 0.63 0.64 0.50 0.43 0.37 0.32 0.30 0.31 0.27 0.51 0.76 0.82 1.21 1.51 1.17 1.09 0.88 0.81 0.97 0.99 1.12 1.31 1.48 1.53
0.05 0.04 0.04 0.08 0.18 0.22 0.31 0.48 0.56 0.44 0.33 0.22 0.20 0.15 0.16 0.17 0.11 0.15 0.43 0.71 0.60 1.16 1.33 1.29 1.07 0.91 0.80 0.83 0.71 0.69 0.60 0.78
0.13 0.16 0.10 0.14 0.23 0.21 0.26 0.35 0.30 0.24 0.20 0.21 0.15 0.17 0.17 0.12 0.09 0.12 0.20 0.42 0.86 1.03 1.31 1.12 1.20 1.15 1.11 1.31 1.38 1.06 0.78 0.65
0.16 0.12 0.10 0.11 0.23 0.36 0.29 0.29 0.26 0.19 0.15 0.15 0.19 0.20 0.18 0.18 0.19 0.29 0.39 0.50 0.83 1.01 1.26 1.22 1.12 1.23 1.14 1.16 1.39 1.61 1.57 1.08
0.34 0.24 0.20 0.15 0.11 0.18 0.31 0.49 0.53 0.48 0.40 0.36 0.39 0.42 0.41 0.41 0.46 0.65 0.64 0.47 0.46 0.88 1.36 1.51 1.27 1.28 1.36 1.38 1.48 1.49 1.80 1.86
0.50 0.38 0.27 0.22 0.18 0.35 0.41 0.37 0.31 0.46 0.61 0.52 0.55 0.61 0.68 0.82 0.80 0.83 0.79 0.56 0.39 0.47 0.59 1.00 1.16 1.28 1.54 1.76 1.59 1.37 1.39 1.53
0.32 0.25 0.27 0.30 0.62 0.97 1.06 0.91 0.74 0.71 0.79 0.73 0.78 0.86 0.87 0.90 0.78 0.94 0.83 0.78 0.74 0.80 0.72 0.95 1.23 1.53 1.57 1.59 1.35 1.20 1.28 1.36
0.14 0.19 0.26 0.44 0.57 0.84 1.07 1.28 1.65 1.41 1.37 1.42 1.19 1.00 1.13 1.14 1.10 1.10 1.13 1.04 1.06 1.02 1.03 1.03 0.84 0.98 1.32 1.61 1.66 1.58 1.67 1.71
0.07 0.07 0.10 0.32 0.55 0.70 0.82 1.13 1.80 1.70 1.32 1.55 1.67 1.40 1.71 2.06 2.10 1.80 1.93 1.88 1.64 1.50 1.19 1.00 0.80 0.67 0.83 1.43 1.75 1.61 1.40 1.64
0.07 0.09 0.12 0.20 0.37 0.58 0.75 1.07 1.58 1.75 1.93 1.82 1.65 1.39 1.76 1.58 1.21 0.99 0.86 0.82 0.79 0.83 0.83 0.82 0.84 0.61 0.53 0.72 1.18 1.69 1.56 1.37
0.15 0.16 0.19 0.25 0.42 0.58 0.74 1.26 1.48 1.40 1.70 1.73 1.52 1.37 1.28 1.03 0.88 0.78 0.66 0.58 0.36 0.43 0.63 0.78 1.00 0.93 0.95 0.92 0.99 1.07 1.47 1.45
0.21 0.23 0.23 0.23 0.31 0.37 0.45 0.58 1.06 1.21 1.46 1.92 1.82 1.57 1.43 1.52 1.54 1.41 0.88 0.77 0.66 0.53 0.49 0.48 0.83 1.20 0.89 0.80 0.77 1.04 1.24 1.46
0.24 0.28 0.29 0.29 0.28 0.24 0.29 0.38 0.45 0.62 0.72 1.17 1.61 1.98 1.30 1.35 1.62 1.84 1.41 0.99 1.07 0.86 0.94 0.78 0.73 1.02 1.43 1.04 0.88 0.69 0.90 1.10
0.22 0.23 0.21 0.25 0.27 0.27 0.33 0.40 0.38 0.49 0.65 1.01 1.16 1.44 1.87 1.48 1.69 1.88 2.15 1.78 1.43 1.48 1.28 1.26 1.21 1.17 1.65 1.13 1.18 1.06 0.94 0.79
0.45 0.39 0.38 0.42 0.48 0.52 0.56 0.62 0.69 0.77 0.87 1.04 1.25 1.18 1.69 2.05 1.76 1.74 1.76 1.89 2.00 1.93 1.59 1.41 1.18 1.14 1.27 1.49 1.61 1.26 1.14 0.95

GFSFLT1_prec_precacc_183.txt.gz
Total_Precipitation_Accumulation
0.01 0.01 0.01 0.03 0.03 0.05 0.37 0.58 0.71 0.88 1.03 1.13 1.24 1.17 1.50 1.52 1.42 1.72 1.42 1.63 1.23 0.67 0.54 0.60 1.00 1.21 1.42 1.63 1.55 1.26 1.31 1.20
0.03 0.02 0.02 0.01 0.06 0.05 0.18 0.47 0.72 1.02 1.05 0.78 0.66 0.68 0.89 0.72 0.66 0.62 0.98 1.20 1.90 1.04 0.56 0.32 0.43 0.50 0.61 1.05 1.50 1.44 1.51 1.84
0.01 0.00 0.00 0.01 0.06 0.13 0.21 0.44 0.72 0.88 0.83 0.57 0.36 0.39 0.44 0.55 0.59 0.68 0.76 0.85 1.22 1.45 0.85 0.61 0.43 0.52 0.58 0.72 1.10 1.21 1.24 1.37
0.00 0.00 0.01 0.04 0.08 0.13 0.32 0.45 0.57 0.64 0.57 0.47 0.36 0.48 0.51 0.71 0.79 0.91 0.69 0.74 0.99 1.18 1.06 0.93 0.88 1.20 1.23 1.25 1.47 1.50 1.31 1.29
0.00 0.01 0.02 0.08 0.16 0.25 0.40 0.54 0.63 0.64 0.50 0.43 0.37 0.32 0.30 0.31 0.27 0.51 0.76 0.82 1.21 1.51 1.17 1.09 0.88 0.81 0.97 0.99 1.12 1.31 1.48 1.53
0.05 0.04 0.04 0.08 0.18 0.22 0.31 0.48 0.56 0.44 0.33 0.22 0.20 0.15 0.16 0.17 0.11 0.15 0.43 0.71 0.60 1.16 1.33 1.29 1.07 0.91 0.80 0.83 0.71 0.69 0.60 0.78
0.13 0.16 0.10 0.14 0.23 0.21 0.26 0.35 0.30 0.24 0.20 0.21 0.15 0.17 0.17 0.12 0.09 0.12 0.20 0.42 0.86 1.03 1.31 1.12 1.20 1.15 1.11 1.31 1.38 1.06 0.78 0.65
0.16 0.12 0.10 0.11 0.23 0.36 0.29 0.29 0.26 0.19 0.15 0.15 0.19 0.20 0.18 0.18 0.19 0.29 0.39 0.50 0.83 1.01 1.26 1.22 1.12 1.23 1.14 1.16 1.39 1.61 1.57 1.08
0.34 0.24 0.20 0.15 0.11 0.18 0.31 0.49 0.53 0.48 0.40 0.36 0.39 0.42 0.41 0.41 0.46 0.65 0.64 0.47 0.46 0.88 1.36 1.51 1.27 1.28 1.36 1.38 1.48 1.49 1.80 1.86
0.50 0.38 0.27 0.22 0.18 0.35 0.41 0.37 0.31 0.46 0.61 0.52 0.55 0.61 0.68 0.82 0.80 0.83 0.79 0.56 0.39 0.47 0.59 1.00 1.16 1.28 1.54 1.76 1.59 1.37 1.39 1.53
0.32 0.25 0.27 0.30 0.62 0.97 1.06 0.91 0.74 0.71 0.79 0.73 0.78 0.86 0.87 0.90 0.78 0.94 0.83 0.78 0.74 0.80 0.72 0.95 1.23 1.53 1.57 1.59 1.35 1.20 1.28 1.36
0.14 0.19 0.26 0.44 0.57 0.84 1.07 1.28 1.65 1.41 1.37 1.42 1.19 1.00 1.13 1.14 1.10 1.10 1.13 1.04 1.06 1.02 1.03 1.03 0.84 0.98 1.32 1.61 1.66 1.58 1.67 1.71
0.07 0.07 0.10 0.32 0.55 0.70 0.82 1.13 1.80 1.70 1.32 1.55 1.67 1.40 1.71 2.06 2.10 1.80 1.93 1.88 1.64 1.50 1.19 1.00 0.80 0.67 0.83 1.43 1.75 1.61 1.40 1.64
0.07 0.09 0.12 0.20 0.37 0.58 0.75 1.07 1.58 1.75 1.93 1.82 1.65 1.39 1.76 1.58 1.21 0.99 0.86 0.82 0.79 0.83 0.83 0.82 0.84 0.61 0.53 0.72 1.18 1.69 1.56 1.37
0.15 0.16 0.19 0.25 0.42 0.58 0.74 1.26 1.48 1.40 1.70 1.73 1.52 1.37 1.28 1.03 0.88 0.78 0.66 0.58 0.36 0.43 0.63 0.78 1.00 0.93 0.95 0.92 0.99 1.07 1.47 1.45
0.21 0.23 0.23 0.23 0.31 0.37 0.45 0.58 1.06 1.21 1.46 1.92 1.82 1.57 1.43 1.54 1.54 1.41 0.88 0.77 0.66 0.53 0.49 0.48 0.83 1.20 0.89 0.80 0.77 1.04 1.24 1.46
0.24 0.28 0.29 0.29 0.28 0.24 0.29 0.38 0.45 0.62 0.72 1.17 1.61 1.99 1.31 1.36 1.62 1.84 1.41 0.99 1.07 0.86 0.94 0.78 0.73 1.02 1.43 1.04 0.88 0.69 0.90 1.10
0.22 0.23 0.21 0.25 0.27 0.27 0.33 0.40 0.38 0.49 0.65 1.01 1.16 1.44 1.87 1.48 1.70 1.88 2.15 1.78 1.43 1.48 1.28 1.26 1.21 1.17 1.65 1.13 1.18 1.06 0.94 0.79
0.45 0.39 0.38 0.42 0.48 0.52 0.56 0.62 0.69 0.77 0.87 1.04 1.25 1.18 1.69 2.05 1.76 1.74 1.76 1.89 2.00 1.93 1.59 1.41 1.18 1.14 1.27 1.49 1.61 1.26 1.14 0.95

GFSFLT1_prec_precacc_186.txt.gz
Total_Precipitation_Accumulation
0.01 0.01 0.01 0.03 0.03 0.05 0.37 0.59 0.71 0.88 1.03 1.13 1.24 1.17 1.50 1.53 1.42 1.72 1.42 1.63 1.23 0.67 0.54 0.60 1.00 1.21 1.42 1.63 1.55 1.26 1.31 1.20
0.03 0.02 0.02 0.01 0.06 0.05 0.18 0.47 0.72 1.02 1.05 0.78 0.66 0.68 0.90 0.73 0.66 0.62 0.98 1.20 1.90 1.04 0.56 0.32 0.43 0.50 0.61 1.05 1.50 1.44 1.51 1.84
0.01 0.00 0.00 0.01 0.06 0.13 0.21 0.44 0.72 0.89 0.84 0.58 0.36 0.39 0.44 0.55 0.59 0.68 0.76 0.85 1.22 1.45 0.85 0.61 0.43 0.52 0.58 0.72 1.10 1.21 1.24 1.37
0.00 0.00 0.01 0.04 0.08 0.13 0.32 0.45 0.58 0.64 0.57 0.47 0.36 0.48 0.51 0.71 0.79 0.91 0.69 0.74 0.99 1.18 1.06 0.93 0.88 1.20 1.23 1.25 1.47 1.50 1.31 1.29
0.00 0.01 0.02 0.08 0.16 0.25 0.41 0.55 0.64 0.64 0.50 0.43 0.37 0.32 0.30 0.31 0.27 0.51 0.76 0.82 1.21 1.51 1.17 1.09 0.88 0.81 0.97 0.99 1.12 1.31 1.48 1.53
0.05 0.04 0.04 0.08 0.18 0.22 0.31 0.49 0.56 0.44 0.33 0.22 0.20 0.15 0.16 0.17 0.11 0.15 0.43 0.71 0.60 1.16 1.33 1.29 1.07 0.91 0.80 0.83 0.71 0.69 0.60 0.78
0.13 0.16 0.10 0.14 0.23 0.21 0.27 0.36 0.30 0.24 0.20 0.21 0.15 0.17 0.17 0.12 0.09 0.12 0.20 0.42 0.86 1.03 1.31 1.12 1.20 1.15 1.11 1.31 1.38 1.06 0.78 0.65
0.16 0.12 0.10 0.11 0.23 0.37 0.29 0.30 0.26 0.19 0.15 0.15 0.20 0.20 0.18 0.18 0.19 0.29 0.39 0.50 0.83 1.01 1.26 1.22 1.12 1.23 1.14 1.16 1.39 1.61 1.57 1.08
0.34 0.24 0.20 0.15 0.11 0.18 0.31 0.50 0.53 0.48 0.40 0.36 0.39 0.42 0.41 0.41 0.46 0.65 0.64 0.47 0.46 0.88 1.36 1.51 1.27 1.28 1.36 1.38 1.48 1.49 1.80 1.86
0.50 0.38 0.27 0.22 0.18 0.35 0.41 0.37 0.31 0.46 0.61 0.52 0.55 0.61 0.68 0.82 0.80 0.83 0.79 0.56 0.39 0.47 0.59 1.00 1.16 1.28 1.54 1.76 1.59 1.37 1.39 1.53
0.32 0.25 0.27 0.30 0.62 0.97 1.06 0.91 0.74 0.71 0.79 0.73 0.78 0.86 0.87 0.90 0.78 0.94 0.83 0.78 0.74 0.80 0.72 0.95 1.23 1.53 1.57 1.59 1.35 1.20 1.28 1.36
0.14 0.19 0.26 0.44 0.57 0.84 1.07 1.28 1.65 1.41 1.37 1.42 1.19 1.00 1.13 1.14 1.10 1.10 1.13 1.04 1.06 1.02 1.03 1.03 0.84 0.98 1.32 1.61 1.66 1.58 1.67 1.71
0.07 0.07 0.10 0.32 0.55 0.70 0.82 1.13 1.80 1.70 1.32 1.55 1.67 1.40 1.71 2.06 2.10 1.80 1.93 1.88 1.64 1.50 1.19 1.00 0.80 0.67 0.83 1.43 1.75 1.61 1.40 1.64
0.07 0.09 0.12 0.20 0.37 0.58 0.75 1.07 1.58 1.75 1.93 1.82 1.65 1.39 1.76 1.58 1.21 0.99 0.87 0.82 0.79 0.83 0.83 0.82 0.84 0.61 0.53 0.72 1.18 1.69 1.56 1.38
0.15 0.16 0.19 0.25 0.42 0.58 0.74 1.26 1.48 1.40 1.70 1.73 1.52 1.37 1.29 1.04 0.89 0.79 0.66 0.58 0.36 0.43 0.64 0.79 1.00 0.94 0.95 0.92 0.99 1.07 1.48 1.45
0.21 0.23 0.23 0.23 0.31 0.37 0.45 0.58 1.06 1.21 1.46 1.92 1.82 1.57 1.44 1.55 1.56 1.41 0.88 0.77 0.66 0.54 0.50 0.48 0.83 1.20 0.89 0.80 0.77 1.04 1.24 1.46
0.24 0.28 0.29 0.29 0.28 0.24 0.29 0.38 0.45 0.62 0.72 1.17 1.61 1.99 1.32 1.38 1.63 1.84 1.41 1.00 1.09 0.88 0.95 0.78 0.73 1.02 1.43 1.04 0.88 0.69 0.90 1.10
0.22 0.23 0.21 0.25 0.27 0.27 0.33 0.40 0.38 0.49 0.65 1.01 1.16 1.44 1.87 1.49 1.71 1.90 2.17 1.79 1.44 1.48 1.28 1.26 1.21 1.17 1.65 1.13 1.18 1.06 0.94 0.79
0.45 0.39 0.38 0.42 0.48 0.52 0.56 0.62 0.69 0.77 0.87 1.05 1.25 1.18 1.69 2.05 1.76 1.75 1.78 1.89 2.00 1.93 1.59 1.41 1.18 1.14 1.27 1.49 1.61 1.26 1.14 0.95